IRIDIUM 33 DEB, 36483

Orbit data source: Space-Track

IRIDIUM 33 DEB, 36483 is space debris in LEO originally from a launch on Sun, 14 Sep 1997 UTC launched from the Tyuratam Missile And Space Complex (TTMTR). The debris from Iridium 33, an American commercial communications satellite, has been tracked extensively since its accidental collision with the defunct Russian satellite Cosmos 2251 in 2009. This event, occurring at high speed in low Earth orbit (LEO), generated thousands of pieces of space debris, significantly increasing the risk of further collisions. The Iridium 33 debris cloud has impacted space traffic management and orbital debris mitigation strategies, making it a subject of ongoing study in space situational awareness.

Loading next visibility...
Identifier
36483, 1997-051VZ
Orbit
LEO
Country
Flag of USUS
Related business
Manufacturer
Unknown
Mission
Spacecraft
Bus & Motor
Unknown
Mass
Unknown
Launch date (UTC)
1997-09-14 (29 years ago)
Launch vehicle
Unknown
Launch site
Tyuratam Missile And Space Complex (TTMTR)
Object type
Payload
Rocket body
Debris
Shape & HBR
Unknown shape, 0.1 m
Radar Cross Section
Small (<0.1 m²)

Expand to show TLE details & history
Last TLE update: 1 week ago

TLE from 1 week ago
0 IRIDIUM 33 DEB
1 36483U 97051VZ  26103.96176541  .00000905  00000-0  24684-3 0  9998
2 36483  86.3839   0.1649 0011409  83.0785 277.1715 14.46316988669123
Epoch: 2026-04-13T23:04Z
TLE epoch observation values (Epoch: 2026-04-13T23:04:56.531Z)
Latitude
-0.00002°
Longitude
171.7845°
Altitude
739.766 km
Speed
7.485 km/s
True Right ascension
00h 00m 39s
True Declination
0° 00' 00"
Sunlit
Object was in daylight at epoch
Visualization orbit readout
Latitude
Unknown
Longitude
Unknown
Altitude
Unknown
Speed
Unknown
Apparent Right ascension
Unknown
Apparent Declination
Unknown
Sunlit
N/A
Visualization observer readout
Local Sidereal Time
19:07:38
Azimuth
Unknown
Elevation
Unknown
Doppler factor
Unknown
Orbital elements
Apogee altitude
742.766 km
Perigee altitude
726.536 km
Semi-major axis
7,112.788 km
Eccentricity
0.00114
Inclination
86.3839°
RAAN
0.1649°
Arg. of periapsis
83.0785°
True anomaly
277.04176°
Mean anomaly
277.1715°
Eccentric anomaly
277.10663°
Mean motion
3.61812 °/min
Orbital period
99.5 mins
BSTAR
0.00024684
Loading maneuver chart data...
Computing Atmospheric mass density...

Documentation

Showing up to 5 results
|